Overview Statistics Trail Chart Weather Telemetry Raw packets
 

This is the latest recevied weather packets stored in our database for station/object VK5GR-12. If no packets are shown the sender has not sent any weather packets the latest 10 day(s).

<< 16 17 18 19 20 21 22 >>
Time Temp. Humidity Pressure Rain* Wind** Luminosity Snow
1788274572 13.33° C 98% 1016.7 hPa 0 mm - 0 W/m² -
1788273668 13.89° C 98% 1016.6 hPa 0 mm - 0 W/m² -
1788272768 14.44° C 96% 1016.6 hPa 0 mm - 0 W/m² -
1788271862 14.44° C 95% 1016.7 hPa 0 mm - 0 W/m² -
1788270960 14.44° C 94% 1016.8 hPa 0 mm - 0 W/m² -
1788270058 14.44° C 94% 1016.5 hPa 0 mm - 0 W/m² -
1788269156 14.44° C 93% 1016.9 hPa 0 mm - 0 W/m² -
1788268257 14.44° C 92% 1016.7 hPa 0 mm - 0 W/m² -
1788267354 15° C 92% 1016.8 hPa 0 mm - 0 W/m² -
1788266467 15° C 91% 1016.8 hPa 0 mm - 0 W/m² -
1788265549 15° C 91% 1017 hPa 0 mm - 0 W/m² -
1788264644 15° C 90% 1017 hPa 0 mm - 0 W/m² -
1788263741 15° C 90% 1017 hPa 0 mm - 0 W/m² -
1788262838 15° C 89% 1016.9 hPa 0 mm - 0 W/m² -
1788261939 15° C 89% 1016.7 hPa 0 mm - 0 W/m² -
1788261037 15° C 88% 1016.6 hPa 0 mm - 0 W/m² -
1788260131 15° C 87% 1016.7 hPa 0 mm - 0 W/m² -
1788259227 15° C 87% 1016.5 hPa 0 mm - 0 W/m² -
1788258323 15.56° C 85% 1016.7 hPa 0 mm - 0 W/m² -
1788257419 15° C 86% 1016.3 hPa 0 mm - 0 W/m² -
1788256517 15° C 88% 1016.1 hPa 0 mm - 0 W/m² -
1788255615 14.44° C 92% 1015.7 hPa 0 mm - 0 W/m² -
1788254713 14.44° C 92% 1015.3 hPa 0 mm - 0 W/m² -
1788253809 14.44° C 92% 1015.1 hPa 0 mm - 0 W/m² -
1788252906 14.44° C 92% 1014.8 hPa 0 mm - 0 W/m² -

* Rain latest hour (hover to see other rain measurements)
** Current wind speed in m/s (hover to see current wind gust speed)